TimeMST,TemperatureF,Dew PointF,Humidity,Sea Level PressureIn,VisibilityMPH,Wind Direction,Wind SpeedMPH,Gust SpeedMPH,PrecipitationIn,Events,Conditions,WindDirDegrees,DateUTC
12:53 AM,21.0,10.9,65,30.05,10.0,Calm,Calm,-,N/A,,Scattered Clouds,0,2011-11-17 07:53:00
1:53 AM,19.9,10.0,65,30.01,10.0,West,3.5,-,N/A,,Clear,260,2011-11-17 08:53:00
2:53 AM,19.9,10.0,65,29.94,10.0,Calm,Calm,-,N/A,,Clear,0,2011-11-17 09:53:00
3:53 AM,21.0,10.0,63,29.91,10.0,Calm,Calm,-,N/A,,Partly Cloudy,0,2011-11-17 10:53:00
4:53 AM,23.0,12.0,63,29.87,10.0,Variable,4.6,-,N/A,,Scattered Clouds,0,2011-11-17 11:53:00
5:53 AM,24.1,12.9,62,29.84,10.0,WNW,8.1,-,N/A,,Mostly Cloudy,290,2011-11-17 12:53:00
6:53 AM,39.0,24.1,55,29.71,10.0,South,17.3,28.8,N/A,,Scattered Clouds,180,2011-11-17 13:53:00
7:53 AM,41.0,26.6,57,29.56,10.0,SSE,9.2,16.1,N/A,,Mostly Cloudy,160,2011-11-17 14:53:00
8:53 AM,43.0,28.0,56,29.64,10.0,South,18.4,-,N/A,,Mostly Cloudy,170,2011-11-17 15:53:00
9:53 AM,48.2,26.6,43,29.51,10.0,West,15.0,20.7,N/A,,Mostly Cloudy,270,2011-11-17 16:53:00
10:08 AM,37.4,33.8,87,29.56,10.0,NW,20.7,36.8,N/A,,Overcast,320,2011-11-17 17:08:00
10:30 AM,35.6,33.8,93,29.58,2.5,WNW,15.0,24.2,0.01,Rain,Rain,300,2011-11-17 17:30:00
10:45 AM,35.6,33.8,93,29.60,6.0,WNW,9.2,-,0.04,Rain,Light Rain,290,2011-11-17 17:45:00
10:53 AM,37.0,34.0,89,29.75,10.0,WNW,10.4,-,0.04,Rain,Light Rain,290,2011-11-17 17:53:00
11:19 AM,37.4,33.8,87,29.60,10.0,West,13.8,-,0.01,Rain,Light Rain,270,2011-11-17 18:19:00
11:53 AM,39.9,30.9,70,29.70,10.0,West,18.4,29.9,0.01,,Partly Cloudy,260,2011-11-17 18:53:00
12:53 PM,39.9,28.0,63,29.70,10.0,West,26.5,33.4,N/A,,Overcast,280,2011-11-17 19:53:00
1:53 PM,39.0,26.1,60,29.72,10.0,West,23.0,31.1,N/A,,Mostly Cloudy,270,2011-11-17 20:53:00
2:53 PM,37.0,24.1,59,29.76,10.0,West,17.3,27.6,N/A,,Clear,280,2011-11-17 21:53:00
3:53 PM,36.0,21.0,55,29.78,10.0,WNW,17.3,29.9,N/A,,Clear,300,2011-11-17 22:53:00
4:53 PM,34.0,21.9,61,29.78,10.0,West,13.8,26.5,N/A,,Scattered Clouds,270,2011-11-17 23:53:00
5:53 PM,34.0,21.9,61,29.78,10.0,WSW,13.8,21.9,N/A,,Clear,250,2011-11-18 00:53:00
6:53 PM,34.0,19.0,54,29.75,10.0,West,6.9,18.4,N/A,,Clear,270,2011-11-18 01:53:00
7:53 PM,34.0,16.0,48,29.72,10.0,West,9.2,19.6,N/A,,Clear,280,2011-11-18 02:53:00
8:53 PM,28.4,17.6,64,29.63,10.0,East,5.8,-,N/A,,Clear,80,2011-11-18 03:53:00
9:53 PM,30.2,15.8,55,29.63,10.0,ENE,3.5,-,N/A,,Scattered Clouds,70,2011-11-18 04:53:00
10:53 PM,33.1,16.0,50,29.74,10.0,West,6.9,-,N/A,,Overcast,260,2011-11-18 05:53:00
11:53 PM,30.0,17.1,59,29.73,10.0,Variable,4.6,-,N/A,,Mostly Cloudy,0,2011-11-18 06:53:00